Location: Battery Park City
(40.7115°N, 74.0163°W)
Time: 12:52:46
(UTC+00:00)

Cosmos 1703 Rocket - Pass Details

Date: 08 December 2019
Orbit: 604 x 634 km, 82.5° (Epoch: 17 January)

Event Time Altitude Azimuth Distance (km) Brightness Sun altitude
Rises 22:42:17 0° 171° (S) 2,903 7.1 -13.6°
Reaches altitude 10° 22:44:34 10° 166° (SSE) 2,004 6.2 -14.0°
Maximum altitude 22:48:49 46° 93° (E) 848 3.8 -14.8°
Enters shadow 22:52:46 12° 21° (NNE) 1,890 5.7 -15.5°
